Kansas City International, MO

11:08 PM CDT on October 23, 2017 (GMT -0500)
Kansas City International

Weather History for KMCI - July, 2013

Change the Weather History Date:

Tuesday, July 2, 2013

  Actual Average Record
Temperature  
Mean Temperature 70 °F 77 °F  
Max Temperature 83 °F 87 °F 105 °F (1934)
Min Temperature 57 °F 68 °F 53 °F (1924)
Degree Days  
Heating Degree Days 0 0  
Month to date heating degree days 0 0  
Since 1 June heating degree days 17 9  
Since 1 July heating degree days 0 0  
Cooling Degree Days 5 12  
Month to date cooling degree days 10 24  
Year to date cooling degree days 391 406  
Since 1 June cooling degree days 286 290  
Growing Degree Days 20 (Base 50)    
Moisture  
Dew Point 52 °F    
Average Humidity 57    
Maximum Humidity 80    
Minimum Humidity 33    
Precipitation  
Precipitation T in 0.17 in 4.33 in (2016)
Month to date precipitation T 0.33  
Year to date precipitation 18.05 19.39  
Snow  
Snow 0.00 in 0.00 in 0.00 in ()
Month to date snowfall 0.0 0.0  
Since 1 June snowfall 0.0 0.0  
Since 1 July snowfall 0.0 0.0  
Snow Depth 0.00 in    
Sea Level Pressure  
Sea Level Pressure 30.08 in    
Wind  
Wind Speed 6 mph (NE)    
Max Wind Speed 15 mph    
Max Gust Speed 20 mph    
Visibility 10 miles    
Events Rain    
T = Trace of Precipitation, MM = Missing Value Source: NWS Daily Summary

Daily Weather History Graph

Daily Weather History Graph

Search for Another Location

Airport or City:

Trip Planner

Search our weather history database for the weather conditions in past years. The results will help you decide how hot, cold, wet, or windy it might be!

Date:

Astronomy

Jul. 02, 2013 Rise Set
Actual Time 5:56 AM CDT 8:49 PM CDT
Civil Twilight 5:24 AM CDT 9:21 PM CDT
Nautical Twilight 4:43 AM CDT 10:01 PM CDT
Astronomical Twilight 3:57 AM CDT 10:48 PM CDT
Moon 1:58 AM CDT (7/2) 4:04 PM CDT (7/2)
Length of Visible Light 15h 56m
Length of Day
14h 52m
Waning Crescent, 26% of the Moon is Illuminated
Jul 2
Waning Crescent
Jul 8
New
Jul 15
First Quarter
Jul 22
Full
Jul 29
Last Quarter

Hourly Weather History & Observations

Time (CDT) Temp. Dew Point Humidity Pressure Visibility Wind Dir Wind Speed Gust Speed Precip Events Conditions
12:53 AM 64.0 °F 52.0 °F 65% 30.08 in 10.0 mi NE 4.6 mph - N/A   Clear
1:53 AM 62.1 °F 52.0 °F 70% 30.08 in 10.0 mi North 5.8 mph - N/A   Clear
2:53 AM 61.0 °F 52.0 °F 72% 30.08 in 10.0 mi North 4.6 mph - N/A   Clear
3:53 AM 60.1 °F 51.1 °F 72% 30.07 in 10.0 mi NNE 5.8 mph - N/A   Clear
4:53 AM 59.0 °F 51.1 °F 75% 30.09 in 10.0 mi NNE 4.6 mph - N/A   Partly Cloudy
5:53 AM 57.0 °F 51.1 °F 81% 30.10 in 10.0 mi NNE 5.8 mph - N/A   Partly Cloudy
6:53 AM 60.1 °F 53.1 °F 78% 30.12 in 10.0 mi NNE 5.8 mph - N/A   Scattered Clouds
7:53 AM 64.0 °F 55.0 °F 73% 30.12 in 10.0 mi North 5.8 mph - N/A   Scattered Clouds
9:53 AM 75.0 °F 52.0 °F 44% 30.12 in 10.0 mi NNE 4.6 mph - N/A   Scattered Clouds
10:53 AM 75.9 °F 51.1 °F 42% 30.12 in 10.0 mi NE 6.9 mph - N/A   Scattered Clouds
11:53 AM 78.1 °F 48.9 °F 36% 30.12 in 10.0 mi NE 9.2 mph - N/A   Scattered Clouds
12:53 PM 79.0 °F 48.0 °F 34% 30.11 in 10.0 mi Variable 5.8 mph - N/A   Clear
1:53 PM 81.0 °F 50.0 °F 34% 30.10 in 10.0 mi North 6.9 mph - N/A   Scattered Clouds
2:53 PM 80.1 °F 48.0 °F 32% 30.09 in 10.0 mi ENE 9.2 mph - N/A   Scattered Clouds
3:53 PM 81.0 °F 50.0 °F 34% 30.07 in 10.0 mi NE 9.2 mph - N/A   Scattered Clouds
4:53 PM 80.1 °F 50.0 °F 35% 30.06 in 10.0 mi Calm Calm - N/A   Scattered Clouds
5:53 PM 82.0 °F 51.1 °F 34% 30.04 in 10.0 mi NW 4.6 mph - N/A   Mostly Cloudy
6:53 PM 78.1 °F 52.0 °F 40% 30.04 in 10.0 mi Calm Calm - 0.00 in Rain Light Rain
7:28 PM 73.4 °F 53.6 °F 50% 30.08 in 10.0 mi ESE 8.1 mph - 0.00 in   Mostly Cloudy
7:53 PM 71.1 °F 55.0 °F 57% 30.05 in 10.0 mi SSE 3.5 mph - 0.00 in   Mostly Cloudy
8:53 PM 71.1 °F 55.0 °F 57% 30.06 in 10.0 mi East 5.8 mph - N/A   Mostly Cloudy
9:53 PM 70.0 °F 55.0 °F 59% 30.06 in 10.0 mi SE 6.9 mph - N/A   Mostly Cloudy
10:53 PM 64.9 °F 55.0 °F 70% 30.06 in 10.0 mi SE 5.8 mph - N/A   Scattered Clouds
11:53 PM 64.9 °F 55.0 °F 70% 30.06 in 10.0 mi SE 4.6 mph - N/A   Partly Cloudy